weather.gov     
National Weather Service

Regional Weather Roundup
NWS Homepage
This page is being discontinued on March 12, 2014.
The same data is available at this site. Please update your bookmarks.
Thank you, and we apologize for the inconvenience.
Please send an email to SR-SRH.Webmaster@noaa.gov with any concerns.


Current Version
Previous Version:    01  02  03  04  05  06  07  08  09  10  11  12  13  14  15  16  17  18  19  20  21  22  23  24  25  26  27  28  29  30  
   31  32  33  34  35  36  37  38  39  40  41  42  43  44  45  46  47  48  49  50  51  52  53  54  55  56  57  58  59  60  
[Printable]
075
ASUS43 KMKX 161621
RWRWI

WISCONSIN REGIONAL WEATHER ROUNDUP
NATIONAL WEATHER SERVICE MILWAUKEE/SULLIVAN WI
1100 AM CDT WED APR 16 2014

NOTE: "FAIR" INDICATES FEW OR NO CLOUDS BELOW 12,000 FEET WITH NO
SIGNIFICANT WEATHER AND/OR OBSTRUCTIONS TO VISIBILITY.

WIZ001-002-006>008-014>016-023>028-161700-
NORTHWEST WISCONSIN

CITY           SKY/WX    TMP DP  RH WIND       PRES   REMARKS
SUPERIOR ARPT  LGT SNOW  28  26  91 E13       30.18S VSB 3/4 WCI  18
ASHLAND        LGT SNOW  27  25  92 E8        30.21F VSB 3/4 WCI  19
HAYWARD        LGT SNOW  27  23  85 E12       30.10F VSB 3/4 WCI  17
SIREN          SNOW      29  27  94 E10       30.05F VSB 1/2 WCI  19
RICE LAKE      HVY SNOW  28  26  92 E15G21    30.06F VSB<1/4 WCI  17
LADYSMITH      SNOW      29  26  90 E15G21    30.11F VSB 1/2 WCI  18
EAU CLAIRE     CLOUDY    33  25  72 E10       30.03S WCI  25
MENOMONIE      SNOW      31  28  92 E14       30.02F VSB 1/2 WCI  20
NEW RICHMOND   CLOUDY    29  26  89 E18G25    29.98F WCI  17
OSCEOLA        LGT SNOW  30  28  95 E16       30.01F WCI  18
$$

WIZ003>005-009-010-017-018-161700-
NORTH CENTRAL WISCONSIN

CITY           SKY/WX    TMP DP  RH WIND       PRES   REMARKS
WOODRUFF       SNOW      29  24  80 SE9       30.18R VSB 1/2 WCI  21
RHINELANDER    SNOW      25  22  88 SE10      30.19S VSB 1/2 WCI  15
EAGLE RIVER    SNOW      26  21  82 SE6       30.20S VSB 1/2 WCI  19
LAND O LAKES   LGT SNOW  26  22  83 S7        30.21S VSB 1   WCI  19
PHILLIPS       LGT SNOW  26  23  89 E10G16    30.13F VSB 3/4 WCI  16
TOMAHAWK       LGT SNOW  27  23  87 CALM      30.16S VSB 3/4
MEDFORD        LGT SNOW  27  24  89 E10G16    30.10F VSB 3/4 WCI  18
MERRILL        LGT SNOW  28  26  89 CALM      30.15F VSB 3/4
$$

WIZ029-030-035-036-043>047-161700-
CENTRAL WISCONSIN

CITY           SKY/WX    TMP DP  RH WIND       PRES   REMARKS
WAUSAU         SNOW      29  26  89 E15G22    30.13F VSB 1/2 WCI  18
MOSINEE        LGT SNOW  28  27  93 E12G20    30.16F VSB 3/4 WCI  18
MARSHFIELD     CLOUDY    31  26  82 SE17G28   30.09F WCI  19
STEVENS POINT  LGT SNOW  29  26  88 SE12G17   30.17F VSB 1   WCI  20
WAUPACA        CLOUDY    37  27  65 SE13G20   30.21F WCI  29
WAUTOMA        MIX PCPN  37  25  62 SE12      30.18F WCI  29
WISC RAPIDS    CLOUDY    32  27  81 SE12G26   30.15F WCI  23
CAMP DOUGLAS   PTSUNNY   37  27  65 SE13G23   30.09F WCI  29
$$

WIZ011>013-019>022-031-037>040-048>050-161700-
NORTHEAST WISCONSIN

CITY           SKY/WX    TMP DP  RH WIND       PRES   REMARKS
ANTIGO         LGT SNOW  26  24  90 SE13      30.19F WCI  15
STURGEON BAY   CLOUDY    34  23  64 S14G25    30.31F WCI  24
GREEN BAY      CLOUDY    35  28  75 SE16      30.27F WCI  25
MANITOWOC      CLOUDY    36  30  79 SE17      30.29F WCI  26
APPLETON       CLOUDY    36  27  69 SE16      30.24S WCI  26
CLINTONVILLE   CLOUDY    34  28  80 SE12      30.23F WCI  25
OSHKOSH        CLOUDY    38  23  55 SE17      30.22F WCI  28
$$

WIZ032>034-041-042-053>061-161700-
SOUTHWEST WISCONSIN

CITY           SKY/WX    TMP DP  RH WIND       PRES   REMARKS
LA CROSSE      CLOUDY    46  24  42 SE17G23   30.00F
SPARTA         CLOUDY    42  23  46 SE15G22   30.04F
VIROQUA        FAIR      40  26  57 SE20G28   30.00F WCI  31
BOSCOBEL       MOSUNNY   47  25  42 SE14G22   30.07F
PRAIRIE DU CHI PTSUNNY   47  25  42 SE14G20   30.03F
PLATTEVILLE    FAIR      45  29  53 SE26      30.09F
$$

WIZ056-057-062-063-064-067-068-161700-
SOUTH CENTRAL WISCONSIN

CITY           SKY/WX    TMP DP  RH WIND       PRES   REMARKS
BARABOO/DELLS  PTSUNNY   40  26  56 S18G29    30.12F WCI  31
LONE ROCK      MOSUNNY   45  26  47 SE13G26   30.11F
WATERTOWN      PTSUNNY   40  25  54 SE14G22   30.21F WCI  33
MADISON        CLOUDY    43  25  49 S23G33    30.18F
MIDDLETON      FAIR      44  24  46 S22G28    30.16F
MONROE         PTSUNNY   42  27  56 SE26G32   30.16F
JANESVILLE     PTSUNNY   43  23  45 SE21G26   30.21S
$$

WIZ051-052-058>065-066-070>072-161700-
SOUTHEAST WISCONSIN

CITY           SKY/WX    TMP DP  RH WIND       PRES   REMARKS
MILWAUKEE      PTSUNNY   40  27  59 SE17      30.28F WCI  31
WAUKESHA       MOSUNNY   37  23  56 SE12G23   30.25F WCI  30
MILWAUKEE/TIMM CLOUDY    41  19  42 S17       30.27F
RACINE         PTSUNNY   38  28  67 SE18G25   30.30F WCI  28
BURLINGTON     PTSUNNY   40  24  52 E17G24    30.25F WCI  31
KENOSHA        CLOUDY    40  25  55 SE15      30.27F WCI  32
FOND DU LAC    PTSUNNY   38  24  57 SE20G26   30.22F WCI  28
SHEBOYGAN      CLOUDY    37  29  72 SE14G23   30.28F WCI  28
WEST BEND      PTSUNNY   39  21  48 SE14G21   30.24F WCI  31
JUNEAU         CLOUDY    38  22  52 SE15      30.22S WCI  29
$$

LSZ147-162-161700-
LAKE SUPERIOR

STATION/POSITION TIME  TEMP    WIND        PRES    WAVE
                       AIR SEA DIR/SP/G            HT/PER
                 (UTC) (F)     (DEG/KT/KT) (MB)    (FT/S)
DEVILS ISLAND    1600   29     110/ 11/ 13 1025.0R
PORT WING        1500   30     120/  5/  9 1023.0R
SAXON HARBOR     1500          170/  5/  8 1023.4R
$$

LMZ867-665-643>646-161700-
LAKE MICHIGAN

STATION/POSITION TIME  TEMP    WIND        PRES    WAVE
                       AIR SEA DIR/SP/G            HT/PER
                 (UTC) (F)     (DEG/KT/KT) (MB)    (FT/S)
NORTHPORT PIER   1500   34     160/  9/ 16 1026.8S
SISTER BAY       1523   40     190/ 17/ 21   N/A
KEWAUNEE LAKESHO 1600   33     140/ 15/ 20 1026.8F
SHEBOYGAN LAKESH 1600   35     140/ 22/ 24 1026.2F
PORT WASHINGTON  1540   36     140/ 15/ 18 1025.7F
MILWAUKEE LAKESH 1600   35     140/ 19/ 22   N/A
KENOSHA   LAKESH 1600   36     150/ 21/ 25   N/A
$$

TC  - TEMPERATURE IN CELSIUS
VSB - VISIBILITY IN STATUTE MILES
WCI - WIND CHILL INDEX
HX  - HEAT INDEX





U.S. Dept. of Commerce
NOAA National Weather Service
1325 East West Highway
Silver Spring, MD 20910
E-mail: w-nws.webmaster@noaa.gov
Page last modified: May 16, 2007
NATIONAL WEATHER SERVICE: for Safety, for Work, for Fun - FOR LIFE